Location: Mascot Post Office (historical)
(40.2645°N, 99.5462°W)
Time: 17:18:25
(UTC+00:00)

ALOS 2 - Pass Details

Date: 14 July 2020
Orbit: 630 x 632 km, 97.9° (Epoch: 05 August)

Event Time Altitude Azimuth Distance (km) Brightness Sun altitude
Exits shadow 05:37:30 37° 57° (ENE) 990 3.6 -26.2°
Drops below altitude 10° 05:41:08 10° 4° (N) 2,020 6.1 -26.4°
Sets 05:43:27 0° 356° (N) 2,932 7.3 -26.5°
